STARLINK-32599, 62048

Orbit data source: Space-Track

STARLINK-32599, 62048 is a payload satellite owned by SpaceX/Seattle (US) in LEO that was launched on Thu, 21 Nov 2024 UTC via an FALCON 9 launch vehicle from the Air Force Eastern Test Range (AFETR). Payload-class satellites include a variety of spacecraft equipped with specific instruments for various scientific and technological missions. These include communications satellites like Starlink; space stations such as the ISS; scientific satellites like the Hubble; Earth observation satellites from companies like Planet Labs, Umbra, and HawkEye 360; GPS; miniature CubeSats for education and research; and military/defense satellites.

Loading next visibility...
Identifier
62048, 2024-216S
Orbit
LEO
Last TLE update
23 hours ago
Origin
Manufacturer
SpaceX/Seattle
Mission
Operational Commercial Communications
Bus & Motor
STARLINK V2M, Unknown motor
Mass
730 kg wet, ~700 kg dry
Launch date (UTC)
2024-11-21 (6 months ago)
Launch vehicle
FALCON 9
Launch site
Air Force Eastern Test Range (AFETR)
Object type
Payload
Rocket body
Debris
Shape & HBR
Box + 2 Pan, 29 m
Radar Cross Section
36.964 m², Large (>1 m²)

Expand to show TLE details & history

TLE from 23 hours ago
0 STARLINK-32599
1 62048U 24216S   25133.38506999  .00000010  00000-0  99007-5 0  9999
2 62048  43.0018 159.5761 0001051 272.1089  87.9642 15.27573332 27865
Epoch: 2025-05-13T09:14Z
Definitive object data (Epoch: 2025-05-13T09:14:30.047Z)
Latitude
-0.00003°
Longitude
149.56631°
Altitude
482.819 km
Speed
7.626 km/s
True Right ascension
10h 38m 18s
True Declination
0° 00' 00"
Sunlit
Object was in daylight at TLE epoch
Visualization TLE readout
Latitude
30.53663°
Longitude
-74.72197°
Altitude
484.329 km
Speed
7.628 km/s
Apparent Right ascension
23h 14m 14s
Apparent Declination
-7° 12' 21"
Sunlit
Object is in daylight
Visualization observer readout
Local Sidereal Time
16:15:59
Azimuth
86.193° E
Elevation
-15.775°
Doppler factor
1
Orbital elements
Apogee altitude
485.735 km
Perigee altitude
484.293 km
Semi-major axis
6,863.151 km
Eccentricity
0.0001051
Inclination
43.0018°
RAAN
159.5761°
Arg. of periapsis
272.1089°
True anomaly
87.97624°
Mean anomaly
87.9642°
Eccentric anomaly
87.97022°
Mean motion
3.81731 °/min
BSTAR
0.0000099007
Orbital period
94.31 mins
Loading maneuver chart data...
Loading SW <> Apogee altitude chart data...
Loading historical data...
Loading historical data...
Loading historical data...
Loading historical data...
Loading historical data...
Loading historical data...
Loading historical data...

STARLINK-32599 Visibility forecast

Observer location: undefined°, undefined°

Span
Click to sort rows by Start time (UTC) header in descending order
Start Az.
Max El. time (UTC)
Max El. Az.
Max El.
End time (UTC)
End Az.
7 mins2025-05-14 09:11:12.886Z289.216° WNW2025-05-14 09:15:12.886Z76.345° E41.886°2025-05-14 09:18:12.886Z101.865° ESE
5 mins2025-05-14 10:51:12.886Z263.939° W2025-05-14 10:53:12.886Z220.831° SW26.015°2025-05-14 10:56:12.886Z154.848° SSE
6 mins2025-05-15 05:26:12.886Z245.71° WSW2025-05-15 05:28:12.886Z231.845° WSW42.062°2025-05-15 05:32:12.886Z72.913° E
6 mins2025-05-15 07:05:12.886Z284.837° WNW2025-05-15 07:08:12.886Z22.298° NNE37.07°2025-05-15 07:11:12.886Z74.095° E
|